Погода в Сылгы-Ытаре

Россия / Республика Саха (Якутия)     67°51′05″N   154°49′02″E
темп.,
°C
ветер,
м/с
пор.,
м/с
влажн.,
%
обл.,
%
осадки,
мм/ч
давл.,
гПа
погр.,
м
27 февраля, сб
сб2723:00−30з1110093 0.1 103419
02:00−29зюз11100100 0.1 103419
05:00−31ююз1210098 0.1 103319
08:00−32зюз11100100 0.0 103319
11:00−28ююз1197100 0.1 103348
14:00−27ю119498 0.0 1032165
17:00−31ю1110097 0.0 103219
20:00−33юв1110066 0.0 103219
28 февраля, вс
вс2823:00−34ююв1110054 0.0 103219
02:00−35юв1110062 0.0 103219
05:00−36ююв1110051 0.0 103119
08:00−36юв111005 0.0 103119
11:00−31вюв11944 0.0 103063
14:00−29в22900 0.0 1029221
17:00−32всв229510 0.0 102819
20:00−34всв23980 0.0 102819
1 марта, пн
пн123:00−34св231000 0.0 102719
02:00−35св221000 0.0 102619
05:00−35ссв221000 0.0 102519
08:00−36с121000 0.0 102419
11:00−32сз11950 0.0 102478
14:00−30сз229043 0.0 1022277
17:00−32з229763 0.0 102220
20:00−34з339840 0.0 102319
2 марта, вт
вт223:00−36зюз339834 0.0 102319
02:00−37зюз449823 0.0 102332
05:00−38зюз459825 0.0 102439
08:00−39юз459736 0.0 102538
11:00−36зюз469636 0.0 1026180
14:00−33зюз459326 0.0 1026250
17:00−35юз349418 0.0 102725
20:00−37юз33952 0.0 102919
3 марта, ср
ср323:00−38юз23972 0.0 102919
02:00−39юз229915 0.0 102918
05:00−40юз1210037 0.0 102918
08:00−40юв0110017 0.0 102918
11:00−35всв119230 0.0 102870
14:00−33св338975 0.0 1026261
17:00−34св339586 0.0 102426
20:00−35св3496100 0.0 102133